CW1238 Weather Reports


Display with metric or nautical units.
time (UTC)temp
F
wind
direction
speed
MPH
gust
MPH
rain 1hr
in
rain 24hr
in
rain mn
in
humidity
%
barometer
mb
20260903032234 76 249 1.0 3.0 0.00 0.15 0.15 87 1050.3
20260903031730 76 231 0.0 6.0 0.00 0.15 0.15 87 1050.2
20260903031223 76 241 1.0 2.0 0.00 0.15 0.15 87 1050.3
20260903030719 76 228 1.0 3.0 0.00 0.15 0.15 87 1050.3
20260903030214 76 200 1.0 2.0 0.00 0.15 0.15 86 1050.2
20260903025704 76 297 1.0 2.0 0.00 0.15 0.15 86 1050.3
20260903025159 76 218 0.0 1.0 0.00 0.15 0.15 86 1050.2
20260903024654 76 226 1.0 3.0 0.00 0.15 0.15 86 1050.4
20260903024153 76 159 1.0 2.0 0.00 0.15 0.15 87 1050.3
20260903023650 76 236 0.0 3.0 0.00 0.15 0.15 86 1050.2
20260903023149 76 255 2.0 3.0 0.00 0.15 0.15 87 1050.2
20260903022644 76 245 0.0 2.0 0.00 0.15 0.15 87 1050.2
20260903022144 76 316 1.0 4.0 0.00 0.15 0.15 87 1050.3
20260903021644 77 263 0.0 1.0 0.00 0.15 0.15 86 1050.0
20260903021138 77 306 1.0 2.0 0.00 0.15 0.15 86 1050.3
20260903020633 77 68 1.0 2.0 0.00 0.15 0.15 86 1050.2
20260903020128 77 335 2.0 2.0 0.00 0.15 0.15 86 1050.2
20260903015623 77 310 1.0 1.0 0.00 0.15 0.15 85 1050.2
20260903015118 77 193 1.0 2.0 0.00 0.15 0.15 85 1050.1
20260903014613 77 219 0.0 1.0 0.00 0.15 0.15 85 1049.8
20260903014112 77 307 1.0 2.0 0.00 0.15 0.15 85 1050.0
20260903013607 77 222 0.0 2.0 0.00 0.15 0.15 84 1049.9
20260903013102 77 239 0.0 0.0 0.00 0.15 0.15 83 1050.0
20260903012601 77 235 0.0 1.0 0.00 0.15 0.15 83 1049.9
20260903012059 77 219 0.0 1.0 0.00 0.15 0.15 84 1049.9
20260903011554 77 230 0.0 0.0 0.00 0.15 0.15 85 1049.9
20260903011054 77 234 0.0 1.0 0.00 0.15 0.15 85 1049.9
20260903010550 77 240 0.0 0.0 0.00 0.15 0.15 85 1049.9
20260903010048 78 232 0.0 0.0 0.00 0.15 0.15 84 1049.9
20260903005543 78 224 0.0 0.0 0.00 0.15 0.15 82 1049.8
20260903005038 79 234 0.0 3.0 0.00 0.15 0.15 81 1049.9
20260903004538 79 223 0.0 2.0 0.00 0.15 0.15 81 1049.9
20260903004034 79 230 0.0 1.0 0.00 0.15 0.15 80 1049.9
20260903003529 80 215 0.0 1.0 0.00 0.15 0.15 79 1050.1
20260903003024 80 239 0.0 3.0 0.00 0.15 0.15 79 1050.0
20260903002519 80 208 2.0 3.0 0.00 0.15 0.15 79 1050.0
20260903002014 80 226 0.0 2.0 0.00 0.15 0.15 79 1050.0
20260903001514 81 239 0.0 1.0 0.00 0.15 0.15 78 1049.8
20260903001008 81 233 1.0 2.0 0.00 0.15 0.15 78 1049.8
20260903000503 82 239 1.0 2.0 0.00 0.15 0.15 78 1049.9
20260903000002 82 221 1.0 2.0 0.00 0.15 0.15 77 1049.7
20260902235456 82 219 0.0 1.0 0.00 0.15 0.15 76 1049.9
20260902234951 82 222 0.0 7.0 0.00 0.15 0.15 75 1049.8
20260902234446 83 217 0.0 3.0 0.00 0.15 0.15 75 1050.0
20260902233945 83 222 0.0 4.0 0.00 0.15 0.15 75 1050.1
20260902233438 83 232 0.0 1.0 0.00 0.15 0.15 75 1050.0
20260902232939 83 147 1.0 2.0 0.00 0.15 0.15 73 1050.1
20260902232433 83 215 2.0 4.0 0.00 0.15 0.15 72 1050.0
20260902231933 84 221 1.0 7.0 0.00 0.15 0.15 72 1050.1
20260902231428 84 166 1.0 6.0 0.00 0.15 0.15 72 1050.1
20260902230922 84 126 3.0 4.0 0.00 0.15 0.15 71 1050.0
20260902230422 84 226 2.0 6.0 0.00 0.15 0.15 71 1050.0
20260902225916 85 236 1.0 3.0 0.00 0.15 0.15 73 1050.1
20260902225411 85 209 2.0 3.0 0.00 0.15 0.15 70 1050.2
20260902224909 85 88 1.0 3.0 0.00 0.15 0.15 68 1050.2
20260902224404 86 149 2.0 4.0 0.00 0.15 0.15 67 1050.4
20260902223900 86 259 2.0 3.0 0.00 0.15 0.15 68 1050.2
20260902223355 86 219 3.0 7.0 0.00 0.15 0.15 65 1050.2
20260902222850 87 197 2.0 2.0 0.00 0.15 0.15 65 1050.2
20260902222348 87 232 2.0 3.0 0.00 0.15 0.15 65 1050.1
20260902221843 87 168 2.0 4.0 0.00 0.15 0.15 63 1050.1
20260902221342 87 231 2.0 6.0 0.00 0.15 0.15 66 1050.3
20260902220838 87 200 4.0 8.0 0.00 0.15 0.15 65 1050.2
20260902220337 87 229 2.0 6.0 0.00 0.15 0.15 64 1050.2
20260902215832 87 229 4.0 6.0 0.00 0.15 0.15 64 1050.3
20260902215333 87 211 4.0 8.0 0.00 0.15 0.15 65 1050.3
20260902214829 87 243 3.0 6.0 0.00 0.15 0.15 64 1050.2
20260902214327 87 192 2.0 3.0 0.00 0.15 0.15 63 1050.1
20260902213823 87 171 5.0 7.0 0.00 0.15 0.15 63 1050.3
20260902213319 87 235 0.0 1.0 0.00 0.15 0.15 64 1050.2
20260902212817 86 223 3.0 3.0 0.00 0.15 0.15 64 1050.4
20260902212314 86 179 2.0 4.0 0.00 0.15 0.15 64 1050.5
20260902211810 86 217 6.0 7.0 0.00 0.15 0.15 63 1050.4
20260902211305 86 244 4.0 4.0 0.00 0.15 0.15 64 1050.5
20260902210800 87 204 2.0 3.0 0.00 0.15 0.15 63 1050.5
20260902210255 86 214 4.0 4.0 0.00 0.15 0.15 65 1050.6
20260902205753 86 139 2.0 6.0 0.00 0.15 0.15 64 1050.5
20260902205248 86 249 3.0 4.0 0.00 0.15 0.15 62 1050.5
20260902204743 86 234 1.0 3.0 0.00 0.15 0.15 64 1050.5
20260902204238 86 227 3.0 4.0 0.00 0.15 0.15 62 1050.6
20260902203733 86 238 0.0 4.0 0.00 0.15 0.15 64 1050.8
20260902203228 86 258 4.0 6.0 0.00 0.15 0.15 64 1050.9
20260902202728 86 191 2.0 3.0 0.00 0.15 0.15 66 1050.8
20260902202224 87 241 4.0 4.0 0.00 0.15 0.15 65 1050.7
20260902201721 87 242 0.0 4.0 0.00 0.15 0.15 62 1050.9
20260902201219 87 244 3.0 3.0 0.00 0.15 0.15 66 1050.8
20260902200714 87 259 0.0 2.0 0.00 0.15 0.15 65 1050.9
20260902200211 86 236 0.0 2.0 0.00 0.15 0.15 67 1050.9
20260902195706 86 243 1.0 2.0 0.00 0.15 0.15 65 1051.1
20260902195205 85 211 1.0 3.0 0.00 0.15 0.15 68 1051.1
20260902194705 85 214 4.0 4.0 0.00 0.15 0.15 66 1051.3
20260902194200 84 226 2.0 3.0 0.00 0.15 0.15 69 1051.2
20260902193656 84 247 1.0 4.0 0.00 0.15 0.15 69 1051.2
20260902193151 85 204 3.0 4.0 0.00 0.15 0.15 67 1051.1
20260902192649 84 234 4.0 4.0 0.00 0.15 0.15 68 1051.1
20260902192148 84 231 4.0 7.0 0.00 0.15 0.15 67 1051.1
20260902191643 84 178 3.0 6.0 0.00 0.15 0.15 69 1051.4
20260902191137 83 193 2.0 4.0 0.00 0.15 0.15 70 1051.3
20260902190633 83 212 3.0 6.0 0.00 0.15 0.15 70 1051.3
20260902190128 83 240 4.0 4.0 0.00 0.15 0.15 70 1051.3
20260902185624 83 216 1.0 6.0 0.00 0.15 0.15 69 1051.1
20260902185120 83 205 1.0 2.0 0.00 0.15 0.15 66 1051.1
20260902184615 83 286 2.0 3.0 0.00 0.15 0.15 67 1051.3
20260902184110 82 239 2.0 2.0 0.00 0.15 0.15 69 1051.4
20260902183606 81 229 2.0 4.0 0.00 0.15 0.15 70 1051.6
20260902183103 81 248 2.0 3.0 0.00 0.15 0.15 72 1051.5
20260902182558 80 223 0.0 2.0 0.00 0.15 0.15 75 1051.7
20260902182055 80 33 1.0 4.0 0.00 0.15 0.15 76 1052.0
20260902181550 79 238 4.0 4.0 0.00 0.15 0.15 74 1052.0
20260902181050 79 222 3.0 3.0 0.00 0.15 0.15 78 1051.9
20260902180544 78 235 1.0 3.0 0.00 0.15 0.15 78 1051.8
20260902180040 78 221 2.0 3.0 0.00 0.15 0.15 77 1051.7
20260902175540 78 184 2.0 4.0 0.00 0.15 0.15 79 1051.7
20260902175036 77 231 4.0 6.0 0.00 0.15 0.15 79 1051.7
20260902174532 77 228 1.0 4.0 0.00 0.15 0.15 80 1051.7
20260902174033 77 147 5.0 7.0 0.00 0.15 0.15 82 1051.8
20260902173532 77 225 2.0 13.0 0.00 0.15 0.15 82 1052.0
20260902173032 76 233 1.0 9.0 0.00 0.15 0.15 81 1052.2
20260902172527 77 175 1.0 9.0 0.00 0.15 0.15 81 1052.0
20260902172022 76 275 2.0 3.0 0.00 0.15 0.15 81 1051.8
20260902171518 75 184 1.0 6.0 0.00 0.15 0.15 82 1052.0
20260902171013 73 174 1.0 2.0 0.00 0.15 0.15 86 1052.2
20260902170509 73 70 1.0 2.0 0.00 0.15 0.15 87 1052.3
20260902170004 73 209 2.0 3.0 0.00 0.15 0.15 87 1052.0
20260902165503 73 85 2.0 2.0 0.00 0.15 0.15 87 1052.6
20260902164958 72 229 1.0 2.0 0.00 0.15 0.15 88 1052.6
20260902164454 72 157 2.0 4.0 0.00 0.15 0.15 88 1052.7
20260902163952 72 211 2.0 3.0 0.00 0.15 0.15 87 1052.8
20260902163448 72 208 0.0 3.0 0.00 0.15 0.15 88 1052.5
20260902162945 72 185 3.0 3.0 0.00 0.15 0.15 87 1052.8
20260902162441 73 238 3.0 4.0 0.00 0.15 0.15 87 1052.9
20260902161940 72 209 2.0 3.0 0.00 0.15 0.15 87 1052.7
20260902161435 72 237 1.0 4.0 0.00 0.15 0.15 88 1052.7
20260902160931 72 196 1.0 2.0 0.00 0.15 0.15 88 1052.7
20260902160427 72 174 4.0 4.0 0.00 0.15 0.15 88 1052.8
20260902155925 72 220 3.0 3.0 0.00 0.15 0.15 87 1052.7
20260902155421 72 217 0.0 1.0 0.00 0.15 0.15 88 1052.7
20260902154914 72 192 2.0 3.0 0.00 0.15 0.15 88 1052.7
20260902154410 72 223 1.0 4.0 0.00 0.15 0.15 86 1052.6
20260902153909 73 205 2.0 3.0 0.00 0.15 0.15 88 1052.5
20260902153408 73 242 3.0 3.0 0.00 0.15 0.15 86 1052.6
20260902152904 73 248 2.0 7.0 0.00 0.15 0.15 87 1052.4
20260902152359 72 50 2.0 3.0 0.00 0.15 0.15 87 1052.0
20260902151855 71 190 2.0 4.0 0.00 0.15 0.15 89 1052.2
20260902151351 70 229 0.0 1.0 0.00 0.15 0.15 91 1052.3
20260902150850 70 214 1.0 3.0 0.00 0.15 0.15 91 1052.0
20260902150347 70 317 2.0 3.0 0.00 0.15 0.15 91 1052.2
20260902145846 70 331 2.0 4.0 0.00 0.15 0.15 91 1052.3
20260902145341 70 290 1.0 4.0 0.00 0.15 0.15 92 1052.3
20260902144837 69 227 0.0 2.0 0.00 0.15 0.15 93 1052.3
20260902144333 69 239 2.0 3.0 0.00 0.15 0.15 93 1052.5
20260902143827 69 226 2.0 3.0 0.00 0.15 0.15 93 1052.4
20260902143322 68 247 0.0 3.0 0.00 0.15 0.15 96 1052.5
20260902142818 68 233 0.0 3.0 0.00 0.15 0.15 99 1052.3
20260902142314 67 101 1.0 2.0 0.00 0.15 0.15 99 1052.4
20260902141809 67 219 1.0 1.0 0.00 0.15 0.15 99 1052.3
20260902141304 67 340 0.0 1.0 0.00 0.15 0.15 99 1052.5
20260902140803 67 165 0.0 2.0 0.00 0.15 0.15 99 1052.5
20260902140259 67 242 1.0 3.0 0.00 0.15 0.15 99 1052.7
20260902135757 66 229 0.0 1.0 0.00 0.15 0.15 99 1052.6
20260902135254 66 221 1.0 2.0 0.00 0.15 0.15 99 1052.5
20260902134753 66 203 1.0 2.0 0.00 0.15 0.15 99 1052.2
20260902134249 66 249 0.0 1.0 0.00 0.15 0.15 99 1052.5
20260902133744 66 227 0.0 1.0 0.00 0.15 0.15 99 1052.7
20260902133243 66 253 0.0 1.0 0.00 0.15 0.15 99 1052.6
20260902132739 66 234 1.0 1.0 0.00 0.15 0.15 99 1052.7
20260902132234 66 222 0.0 1.0 0.00 0.15 0.15 99 1052.2
20260902131729 66 272 1.0 2.0 0.00 0.15 0.15 99 1052.0
20260902131226 66 241 1.0 2.0 0.00 0.15 0.15 99 1051.8
20260902130726 66 236 1.0 1.0 0.00 0.15 0.15 99 1051.8
20260902130221 66 265 0.0 0.0 0.00 0.15 0.15 99 1051.8
20260902125717 66 256 0.0 2.0 0.00 0.15 0.15 99 1051.6
20260902125213 66 238 0.0 0.0 0.00 0.15 0.15 99 1052.2
20260902124709 66 234 0.0 0.0 0.00 0.15 0.15 99 1051.9
20260902124204 66 275 1.0 2.0 0.00 0.15 0.15 99 1051.8
20260902123659 66 191 2.0 2.0 0.00 0.15 0.15 99 1052.3
20260902123154 66 232 0.0 1.0 0.00 0.15 0.15 99 1052.5
20260902122648 66 215 2.0 2.0 0.00 0.15 0.15 99 1052.3
20260902122144 66 243 0.0 0.0 0.00 0.15 0.15 99 1051.8
20260902121638 66 220 0.0 1.0 0.00 0.15 0.15 99 1052.0
20260902121133 66 233 0.0 0.0 0.00 0.15 0.15 99 1052.3
20260902120630 66 240 0.0 0.0 0.00 0.15 0.15 99 1052.0
20260902120126 65 204 0.0 0.0 0.00 0.15 0.15 99 1052.2
20260902115620 65 224 0.0 0.0 0.00 0.15 0.15 99 1052.3
20260902115116 65 223 0.0 0.0 0.00 0.15 0.15 99 1052.4
20260902114612 65 226 0.0 0.0 0.00 0.15 0.15 99 1052.5
20260902114112 65 220 0.0 1.0 0.00 0.15 0.15 99 1051.9
20260902113608 66 234 0.0 1.0 0.00 0.15 0.15 99 1051.9
20260902113108 65 227 2.0 3.0 0.00 0.15 0.15 99 1051.7
20260902112603 66 251 1.0 2.0 0.00 0.15 0.15 99 1051.8
20260902112100 66 285 1.0 2.0 0.00 0.15 0.15 99 1051.5
20260902111555 66 243 0.0 2.0 0.00 0.15 0.15 99 1050.9
20260902111051 66 173 2.0 2.0 0.00 0.15 0.15 99 1051.2
20260902110548 66 294 2.0 2.0 0.00 0.15 0.15 99 1050.9
20260902110043 66 250 1.0 3.0 0.05 0.15 0.15 99 1050.5
20260902105538 66 214 0.0 1.0 0.05 0.15 0.15 99 1050.7
20260902105037 66 223 0.0 2.0 0.00 0.14 0.14 99 1051.3
20260902104533 66 204 1.0 1.0 0.00 0.14 0.14 99 1051.2
20260902104033 66 264 1.0 2.0 0.00 0.14 0.14 99 1051.6
20260902103528 66 232 1.0 2.0 0.00 0.14 0.14 99 1051.3
20260902103023 66 236 2.0 4.0 0.07 0.14 0.14 99 1051.7
20260902102520 66 228 0.0 1.0 0.12 0.14 0.14 99 1051.2
20260902102017 66 216 1.0 1.0 0.12 0.13 0.13 99 1051.1
20260902101512 66 232 0.0 0.0 0.14 0.12 0.12 98 1051.3
20260902101010 66 217 0.0 1.0 0.12 0.11 0.11 98 1051.1
20260902100506 66 44 2.0 2.0 0.12 0.10 0.10 97 1052.3
20260902100005 67 292 2.0 4.0 0.12 0.09 0.09 96 1052.9
20260902095500 67 231 1.0 2.0 0.12 0.08 0.08 95 1053.7
20260902094959 68 207 1.0 2.0 0.07 0.07 0.07 93 1053.8
20260902094455 67 232 2.0 6.0 0.05 0.06 0.06 96 1053.6
20260902093955 67 334 1.0 1.0 0.07 0.05 0.05 95 1054.1
20260902093451 67 237 1.0 1.0 0.00 0.04 0.04 95 1054.0
20260902092950 67 238 0.0 1.0 0.00 0.04 0.04 94 1054.3
20260902092445 68 203 1.0 2.0 0.17 0.04 0.04 93 1054.4
20260902091945 69 229 3.0 11.0 0.24 0.04 0.04 91 1055.1
20260902091440 70 291 2.0 3.0 0.00 0.00 0.00 86 1055.5
20260902090937 69 230 3.0 17.0 0.00 0.00 0.00 88 1056.7
20260902090432 68 183 1.0 3.0 0.00 0.00 0.00 89 1051.9
20260902085930 68 61 5.0 6.0 0.00 0.00 0.00 90 1051.4
20260902085425 68 142 2.0 6.0 0.00 0.00 0.00 90 1051.8
20260902084920 68 105 2.0 4.0 0.00 0.00 0.00 91 1051.9
20260902084417 69 60 3.0 4.0 0.00 0.00 0.00 90 1052.0
20260902083912 69 100 2.0 6.0 0.00 0.00 0.00 91 1051.7
20260902083407 69 33 2.0 3.0 0.00 0.00 0.00 91 1051.8
20260902082902 69 210 2.0 6.0 0.00 0.00 0.00 91 1051.8
20260902082358 69 38 3.0 6.0 0.00 0.00 0.00 91 1051.9
20260902081854 69 69 3.0 4.0 0.00 0.00 0.00 92 1051.9
20260902081350 69 53 3.0 4.0 0.00 0.00 0.00 92 1052.4
20260902080845 69 224 1.0 2.0 0.00 0.00 0.00 92 1052.4
20260902080341 69 250 1.0 3.0 0.00 0.00 0.00 92 1052.0
20260902075840 69 160 1.0 2.0 0.00 0.00 0.00 92 1051.9
20260902075337 69 92 1.0 2.0 0.00 0.00 0.00 92 1052.3
20260902074831 69 121 2.0 2.0 0.00 0.00 0.00 91 1052.0
20260902074321 69 300 1.0 2.0 0.00 0.00 0.00 91 1052.3
20260902073816 69 21 2.0 4.0 0.00 0.00 0.00 91 1052.4
20260902073312 69 10 5.0 6.0 0.00 0.00 0.00 90 1052.3
20260902072808 69 270 0.0 0.0 0.00 0.00 0.00 90 1052.4
20260902072309 70 11 3.0 3.0 0.00 0.00 0.00 89 1052.3
20260902071800 70 268 1.0 3.0 0.00 0.00 0.00 88 1052.3
20260902071255 71 175 4.0 6.0 0.00 0.00 0.00 87 1052.4
20260902070751 71 262 1.0 2.0 0.00 0.00 0.00 85 1052.5
20260902070251 71 11 0.0 1.0 0.00 0.00 0.00 84 1052.5
20260902065749 72 335 1.0 1.0 0.00 0.00 0.00 83 1052.7
20260902065245 72 349 3.0 6.0 0.00 0.00 0.00 82 1052.3
20260902064740 73 280 2.0 3.0 0.00 0.00 0.00 81 1052.3
20260902064236 73 234 3.0 6.0 0.00 0.00 0.00 81 1052.5
20260902063732 73 66 4.0 7.0 0.00 0.00 0.00 80 1053.0
20260902063232 74 300 8.0 14.0 0.00 0.00 0.00 79 1053.6
20260902062726 75 242 4.0 9.0 0.00 0.00 0.00 84 1053.4
20260902062221 74 64 5.0 8.0 0.00 0.00 0.00 87 1053.0
20260902061720 74 283 1.0 2.0 0.00 0.00 0.00 91 1051.0
20260902061215 74 233 0.0 0.0 0.00 0.00 0.00 91 1050.8
20260902060712 74 196 0.0 1.0 0.00 0.00 0.00 91 1050.8
20260902060208 74 255 0.0 1.0 0.00 0.00 0.00 91 1050.6
20260902055703 74 232 0.0 1.0 0.00 0.00 0.00 90 1050.3
20260902055159 74 223 1.0 2.0 0.00 0.00 0.00 89 1050.1
20260902054654 75 232 1.0 7.0 0.00 0.00 0.00 88 1050.2
20260902054149 76 105 1.0 2.0 0.00 0.00 0.00 88 1049.9
20260902053644 75 158 2.0 4.0 0.00 0.00 0.00 88 1049.9
20260902053139 75 246 1.0 1.0 0.00 0.00 0.00 88 1049.8
20260902052638 75 92 1.0 1.0 0.00 0.00 0.00 87 1050.0
20260902052134 75 192 1.0 4.0 0.00 0.00 0.00 87 1050.4
20260902051633 75 241 0.0 1.0 0.00 0.00 0.00 86 1050.6
20260902051127 75 240 0.0 1.0 0.00 0.00 0.00 86 1050.8
20260902050627 75 343 1.0 2.0 0.00 0.00 0.00 85 1050.6
20260902050123 75 101 2.0 4.0 0.00 0.00 0.00 85 1050.8
20260902045618 75 196 1.0 2.0 0.00 0.00 0.00 84 1050.8
20260902045109 76 158 0.0 2.0 0.00 0.00 0.00 83 1050.9
20260902044609 76 302 1.0 6.0 0.00 0.00 0.00 82 1050.9
20260902044104 76 265 2.0 3.0 0.00 0.00 0.00 81 1050.7
20260902043600 76 310 1.0 4.0 0.00 0.00 0.00 81 1050.8
20260902043054 76 248 0.0 2.0 0.00 0.00 0.00 80 1051.0
20260902042554 76 329 2.0 6.0 0.00 0.00 0.00 79 1051.1
20260902042049 76 32 2.0 4.0 0.00 0.00 0.00 79 1051.1
20260902041548 76 56 3.0 3.0 0.00 0.00 0.00 79 1050.9
20260902041043 76 34 2.0 3.0 0.00 0.00 0.00 79 1051.1
20260902040538 77 32 2.0 2.0 0.00 0.00 0.00 79 1050.9
20260902040033 77 57 1.0 4.0 0.00 0.00 0.00 78 1050.9
20260902035531 77 24 2.0 4.0 0.00 0.00 0.00 78 1050.9
20260902035027 76 51 2.0 4.0 0.00 0.00 0.00 79 1050.9
20260902034526 77 57 2.0 4.0 0.00 0.00 0.00 79 1051.0
20260902034025 77 6 3.0 4.0 0.00 0.00 0.00 80 1051.1
20260902033525 77 46 2.0 3.0 0.00 0.00 0.00 80 1051.1
20260902033020 76 310 1.0 3.0 0.00 0.00 0.00 81 1051.2
20260902032514 75 270 1.0 2.0 0.00 0.00 0.00 83 1051.4